• în Republica Moldova
  • Lista ţărilor
  • Pe 7 zile
  • Temperatura apei
  • Hartă satelitară
  • Meteo pe hartă
  • Widget-uri
  • user-avatar
    Intrare

    Meteo pe oră la Monastyrevo

    Astăzi, 17 August, Vineri

    Timp Temperatura Precipitaţii Vânt Presiune Umiditate
    00:00 +14°C° 0 mm 1 m/s 757 mmHg 91%
    01:00 +14°C° 0 mm 1 m/s 758 mmHg 92%
    02:00 +12°C° 0 mm 0 m/s 758 mmHg 95%
    03:00 +13°C° 0 mm 1 m/s 758 mmHg 95%
    04:00 +13°C° 0 mm 1 m/s 758 mmHg 95%
    05:00 +13°C° 0 mm 1 m/s 759 mmHg 96%
    06:00 +15°C° 0 mm 1 m/s 759 mmHg 88%
    07:00 +18°C° 0 mm 1 m/s 759 mmHg 81%
    08:00 +20°C° 0 mm 1 m/s 759 mmHg 71%
    09:00 +20°C° 0 mm 2 m/s 759 mmHg 66%
    10:00 +21°C° 0 mm 2 m/s 759 mmHg 60%
    11:00 +24°C° 0 mm 2 m/s 759 mmHg 55%
    12:00 +24°C° 0 mm 2 m/s 758 mmHg 52%
    13:00 +25°C° 0 mm 2 m/s 758 mmHg 50%
    14:00 +26°C° 0 mm 2 m/s 758 mmHg 48%
    15:00 +26°C° 0 mm 2 m/s 757 mmHg 51%
    16:00 +25°C° 0 mm 2 m/s 757 mmHg 54%
    17:00 +25°C° 0 mm 1 m/s 757 mmHg 56%
    18:00 +23°C° 0 mm 1 m/s 757 mmHg 63%
    19:00 +21°C° 0 mm 1 m/s 757 mmHg 70%
    20:00 +19°C° 0 mm 1 m/s 757 mmHg 77%
    21:00 +18°C° 0 mm 1 m/s 757 mmHg 79%
    22:00 +17°C° 0 mm 2 m/s 757 mmHg 82%
    23:00 +16°C° 0 mm 2 m/s 757 mmHg 84%

    Mâine, 18 August, Sâmbătă

    Timp Temperatura Precipitaţii Vânt Presiune Umiditate
    00:00 +16°C° 0 mm 2 m/s 757 mmHg 87%
    01:00 +15°C° 0 mm 2 m/s 757 mmHg 89%
    02:00 +15°C° 0 mm 2 m/s 757 mmHg 92%
    03:00 +15°C° 0 mm 2 m/s 757 mmHg 93%
    04:00 +15°C° 0 mm 2 m/s 757 mmHg 95%
    05:00 +14°C° 0 mm 2 m/s 757 mmHg 96%
    06:00 +16°C° 0 mm 2 m/s 757 mmHg 89%
    07:00 +18°C° 0 mm 2 m/s 757 mmHg 83%
    08:00 +20°C° 0 mm 2 m/s 757 mmHg 76%
    09:00 +21°C° 0,1 mm 2 m/s 757 mmHg 71%
    10:00 +24°C° 0,1 mm 3 m/s 757 mmHg 67%
    11:00 +25°C° 0,1 mm 3 m/s 757 mmHg 62%
    12:00 +26°C° 0,4 mm 3 m/s 756 mmHg 64%
    13:00 +26°C° 0,4 mm 3 m/s 756 mmHg 67%
    14:00 +26°C° 0,4 mm 3 m/s 756 mmHg 70%
    15:00 +25°C° 0,5 mm 3 m/s 755 mmHg 74%
    16:00 +25°C° 0,5 mm 3 m/s 755 mmHg 78%
    17:00 +24°C° 0,5 mm 2 m/s 755 mmHg 82%
    18:00 +23°C° 0,1 mm 2 m/s 755 mmHg 86%
    19:00 +21°C° 0,1 mm 2 m/s 755 mmHg 90%
    20:00 +19°C° 0,1 mm 2 m/s 755 mmHg 94%
    21:00 +19°C° 0 mm 2 m/s 755 mmHg 95%
    22:00 +19°C° 0 mm 2 m/s 755 mmHg 96%
    23:00 +18°C° 0 mm 2 m/s 755 mmHg 97%

    Poimâine, 19 August, Duminică

    Timp Temperatura Precipitaţii Vânt Presiune Umiditate
    00:00 +18°C° 0 mm 2 m/s 755 mmHg 97%
    01:00 +17°C° 0 mm 2 m/s 754 mmHg 97%
    02:00 +17°C° 0 mm 2 m/s 754 mmHg 97%
    03:00 +17°C° 0 mm 2 m/s 754 mmHg 97%
    04:00 +17°C° 0 mm 2 m/s 754 mmHg 98%
    05:00 +17°C° 0 mm 2 m/s 754 mmHg 98%
    06:00 +18°C° 0 mm 2 m/s 754 mmHg 95%
    07:00 +19°C° 0 mm 2 m/s 754 mmHg 92%
    08:00 +20°C° 0 mm 2 m/s 754 mmHg 88%
    09:00 +21°C° 0,3 mm 3 m/s 754 mmHg 84%
    10:00 +22°C° 0,3 mm 3 m/s 754 mmHg 79%
    11:00 +24°C° 0,3 mm 3 m/s 753 mmHg 74%
    12:00 +25°C° 0,3 mm 3 m/s 753 mmHg 67%
    13:00 +25°C° 0,3 mm 4 m/s 753 mmHg 61%
    14:00 +26°C° 0,3 mm 4 m/s 752 mmHg 54%
    15:00 +25°C° 0 mm 3 m/s 752 mmHg 54%
    16:00 +25°C° 0 mm 3 m/s 752 mmHg 54%
    17:00 +25°C° 0 mm 2 m/s 752 mmHg 54%
    18:00 +23°C° 0 mm 2 m/s 752 mmHg 62%
    19:00 +20°C° 0 mm 2 m/s 752 mmHg 69%
    20:00 +19°C° 0 mm 2 m/s 752 mmHg 76%
    21:00 +18°C° 0 mm 2 m/s 752 mmHg 81%
    22:00 +18°C° 0 mm 2 m/s 752 mmHg 86%
    23:00 +17°C° 0 mm 2 m/s 753 mmHg 92%

    20 August, Luni

    Timp Temperatura Precipitaţii Vânt Presiune Umiditate
    00:00 +17°C° 0 mm 2 m/s 753 mmHg 93%
    01:00 +17°C° 0 mm 2 m/s 752 mmHg 95%
    02:00 +16°C° 0 mm 2 m/s 752 mmHg 97%
    03:00 +16°C° 0 mm 2 m/s 752 mmHg 97%
    04:00 +16°C° 0 mm 2 m/s 753 mmHg 97%
    05:00 +16°C° 0 mm 2 m/s 753 mmHg 98%
    06:00 +16°C° 0 mm 2 m/s 753 mmHg 94%
    07:00 +17°C° 0 mm 2 m/s 753 mmHg 91%
    08:00 +18°C° 0 mm 2 m/s 753 mmHg 88%
    09:00 +19°C° 0 mm 2 m/s 753 mmHg 82%
    10:00 +20°C° 0 mm 3 m/s 753 mmHg 76%
    11:00 +21°C° 0 mm 3 m/s 753 mmHg 71%
    12:00 +21°C° 0,2 mm 3 m/s 752 mmHg 72%
    13:00 +21°C° 0,2 mm 3 m/s 752 mmHg 73%
    14:00 +21°C° 0,2 mm 3 m/s 752 mmHg 74%
    15:00 +21°C° 0,4 mm 2 m/s 752 mmHg 77%
    16:00 +21°C° 0,4 mm 2 m/s 752 mmHg 81%
    17:00 +20°C° 0,4 mm 2 m/s 752 mmHg 85%
    18:00 +19°C° 0,2 mm 2 m/s 751 mmHg 89%
    19:00 +18°C° 0,2 mm 2 m/s 751 mmHg 92%
    20:00 +18°C° 0,2 mm 1 m/s 751 mmHg 96%
    21:00 +18°C° 0 mm 1 m/s 751 mmHg 97%
    22:00 +16°C° 0 mm 1 m/s 751 mmHg 97%
    23:00 +16°C° 0 mm 1 m/s 751 mmHg 98%

    21 August, Marţi

    Timp Temperatura Precipitaţii Vânt Presiune Umiditate
    00:00 +16°C° 0,1 mm 1 m/s 751 mmHg 98%
    01:00 +16°C° 0,1 mm 1 m/s 751 mmHg 98%
    02:00 +16°C° 0,1 mm 1 m/s 751 mmHg 98%
    03:00 +16°C° 0,1 mm 2 m/s 750 mmHg 98%
    04:00 +16°C° 0,1 mm 2 m/s 750 mmHg 98%
    05:00 +16°C° 0,1 mm 2 m/s 749 mmHg 98%
    06:00 +17°C° 0,1 mm 3 m/s 749 mmHg 96%
    07:00 +18°C° 0,1 mm 3 m/s 749 mmHg 94%
    08:00 +19°C° 0,1 mm 4 m/s 749 mmHg 92%
    09:00 +19°C° 0,6 mm 4 m/s 748 mmHg 90%
    10:00 +20°C° 0,6 mm 4 m/s 748 mmHg 89%
    11:00 +20°C° 0,6 mm 4 m/s 747 mmHg 88%
    12:00 +20°C° 1,1 mm 4 m/s 747 mmHg 88%
    13:00 +20°C° 1,1 mm 4 m/s 746 mmHg 89%
    14:00 +21°C° 1,1 mm 4 m/s 746 mmHg 89%
    15:00 +20°C° 1,7 mm 4 m/s 746 mmHg 90%
    16:00 +19°C° 1,7 mm 4 m/s 745 mmHg 91%
    17:00 +19°C° 1,7 mm 4 m/s 745 mmHg 93%
    18:00 +18°C° 0,3 mm 4 m/s 746 mmHg 93%
    19:00 +17°C° 0,3 mm 4 m/s 746 mmHg 94%
    20:00 +15°C° 0,3 mm 4 m/s 746 mmHg 95%
    21:00 +14°C° 0 mm 4 m/s 747 mmHg 95%
    22:00 +13°C° 0 mm 3 m/s 747 mmHg 96%
    23:00 +12°C° 0 mm 3 m/s 748 mmHg 96%

    22 August, Miercuri

    Timp Temperatura Precipitaţii Vânt Presiune Umiditate
    00:00 +12°C° 0 mm 3 m/s 748 mmHg 97%
    01:00 +11°C° 0 mm 3 m/s 749 mmHg 97%
    02:00 +11°C° 0 mm 3 m/s 750 mmHg 97%
    03:00 +10°C° 0 mm 3 m/s 750 mmHg 97%
    04:00 +10°C° 0 mm 3 m/s 750 mmHg 97%
    05:00 +10°C° 0 mm 2 m/s 751 mmHg 97%
    06:00 +12°C° 0 mm 2 m/s 751 mmHg 94%
    07:00 +13°C° 0 mm 2 m/s 751 mmHg 91%
    08:00 +14°C° 0 mm 2 m/s 752 mmHg 88%
    09:00 +16°C° 0 mm 2 m/s 752 mmHg 77%
    10:00 +18°C° 0 mm 2 m/s 752 mmHg 65%
    11:00 +20°C° 0 mm 2 m/s 752 mmHg 54%
    12:00 +20°C° 0 mm 2 m/s 752 mmHg 52%
    13:00 +21°C° 0 mm 2 m/s 752 mmHg 49%
    14:00 +22°C° 0 mm 3 m/s 752 mmHg 47%
    15:00 +21°C° 0 mm 2 m/s 751 mmHg 52%
    16:00 +21°C° 0 mm 2 m/s 751 mmHg 56%
    17:00 +21°C° 0 mm 2 m/s 751 mmHg 60%
    18:00 +19°C° 0,1 mm 2 m/s 750 mmHg 68%
    19:00 +18°C° 0,1 mm 2 m/s 750 mmHg 75%
    20:00 +17°C° 0,1 mm 2 m/s 750 mmHg 83%
    21:00 +17°C° 0,3 mm 3 m/s 749 mmHg 86%
    22:00 +16°C° 0,3 mm 3 m/s 749 mmHg 90%
    23:00 +15°C° 0,3 mm 4 m/s 748 mmHg 93%
    Arată mai mult